Helicity
14 60 86 79 95 81 83 104 93 85 55 37 44 61 71 75 74 58 44 64 40 34 43 66 87 98 96 79 71 59 59 63 35 43 47 57 75 66 55 92 110 93 65
72 57 68 58 65 55 80 108 111 100 70 51 40 50 85 73 60 41 34 47 47 27 37 44 53 52 62 70 58 58 51 50 51 61 58 51 57 71 61 100 72 73 68
56 38 34 40 49 66 97 123 128 108 81 57 36 46 51 41 51 26 24 32 60 43 35 29 39 26 38 54 71 84 61 49 49 54 54 66 49 62 68 108 89 79 72
40 22 6 14 52 67 89 94 104 105 90 74 47 47 30 26 29 22 37 47 39 36 37 28 27 34 37 46 65 48 42 51 41 21 34 56 29 66 68 81 78 88 97
33 15 4 62 51 57 98 99 97 89 75 73 60 16 14 25 13 10 28 35 50 57 40 31 18 21 26 27 22 14 17 44 54 1 18 18 37 67 67 69 75 76 86
48 42 49 66 64 94 79 88 87 78 65 46 44 22 8 -3 6 -2 39 44 68 58 42 17 -3 0 -1 -1 -2 -3 -1 6 33 20 -4 4 33 39 57 56 59 57 67
96 110 90 98 114 90 73 78 76 75 71 51 35 31 27 18 32 34 60 59 83 40 15 -3 -8 -11 -21 -20 -22 -18 -11 -3 15 17 5 -8 22 17 26 38 41 39 45
120 104 103 119 108 78 67 72 69 73 72 65 46 34 26 15 13 15 52 40 31 4 1 -8 -9 -17 -26 -30 -27 -21 -10 8 13 9 10 9 -21 -12 -5 10 16 21 28
109 91 92 89 76 72 65 45 57 64 84 101 90 59 47 16 7 14 23 14 2 0 -7 -8 -21 -25 -24 -21 -21 -14 0 11 42 51 23 18 -25 -46 -32 -21 -9 -1 4
105 85 80 79 65 58 46 47 66 66 94 115 106 80 60 31 13 8 8 2 -5 -13 -19 -21 -17 -17 -18 -16 -14 -9 -7 7 49 69 62 45 -11 -16 -13 -13 -3 5 5
78 94 82 78 54 44 33 48 58 49 87 102 89 67 64 38 20 26 25 37 29 9 -13 -12 -18 -21 -15 -5 -13 -16 -4 80 95 100 97 51 8 6 4 13 24 15 15
70 86 107 100 54 30 41 75 61 56 70 74 61 48 52 33 29 54 48 37 25 18 17 6 2 12 26 70 67 41 78 87 107 127 140 88 53 39 21 32 50 53 41
83 80 98 122 75 70 89 90 58 67 71 68 53 35 40 54 42 48 43 45 52 34 43 38 40 49 55 65 66 89 98 116 143 158 153 142 117 73 46 50 60 73 88
99 77 91 126 139 106 129 91 78 93 82 80 51 67 60 65 54 46 51 55 51 39 33 44 43 35 38 46 45 22 30 50 76 85 80 63 75 49 29 26 34 39 49
95 104 109 156 186 161 160 125 132 125 133 119 113 91 90 92 77 71 83 82 79 76 75 83 99 81 57 45 33 38 39 46 59 80 71 33 41 47 50 47 35 20 18
119 152 141 166 188 221 187 146 152 179 172 162 139 109 106 102 96 100 105 106 119 128 150 135 109 85 60 44 33 39 52 49 53 46 47 69 94 99 114 93 56 34 15
210 194 162 162 201 226 198 172 181 222 226 183 164 179 175 135 151 189 188 203 194 170 149 124 111 89 74 69 61 67 55 36 37 38 60 122 117 86 102 132 160 84 49
245 256 233 201 227 223 168 172 193 225 244 259 260 248 253 267 259 233 195 183 181 180 141 124 97 69 70 73 49 43 47 36 46 109 110 90 116 101 93 119 135 135 144
166 190 224 271 259 229 221 281 337 314 297 277 257 261 255 263 238 213 177 165 168 151 130 104 91 78 54 39 31 29 39 54 90 81 94 90 84 69 63 80 115 108 101
126 160 189 291 311 340 349 368 344 316 277 254 260 244 254 232 214 174 145 136 127 106 100 92 68 56 21 21 34 35 45 61 55 73 68 60 53 37 61 54 27 24 53
145 172 199 256 286 318 296 284 256 231 248 251 242 229 210 164 143 122 94 85 71 63 55 44 12 25 38 48 26 54 46 56 75 67 97 80 63 69 46 32 7 15 54
133 144 181 210 240 211 181 166 188 191 195 170 158 160 135 119 97 74 53 39 47 31 37 44 36 27 36 45 14 14 3 12 71 71 49 52 36 44 43 67 59 80 60
196 186 198 206 218 172 157 159 169 170 142 124 113 103 92 93 76 58 47 24 10 17 31 38 52 55 42 51 76 47 9 25 42 36 28 45 36 57 54 54 71 55 72
197 193 204 204 181 145 113 92 69 64 82 76 71 59 70 80 71 48 29 11 7 15 50 47 65 61 68 69 69 96 94 90 62 66 112 61 70 69 71 72 67 77 45
213 205 193 178 143 101 95 80 90 105 108 93 92 93 92 75 55 37 24 15 21 33 56 78 86 92 83 80 88 81 94 99 109 133 98 118 108 118 118 115 110 82 83
253 235 239 235 187 160 141 118 126 140 142 150 132 114 69 38 41 48 42 37 40 55 69 78 83 92 87 91 96 98 122 119 113 134 121 115 126 139 159 161 136 124 81
Wind_Speed
27 27 28 29 29 30 31 32 33 35 37 38 35 34 25 25 25 27 29 31 35 37 39 38 38 37 33 30 28 31 34 40 44 46 43 37 28 22 21 23 29 32 21
25 26 28 29 30 31 31 33 34 35 37 38 35 32 27 26 28 28 30 32 34 35 40 39 39 38 37 36 36 34 38 41 43 46 43 36 27 24 23 25 22 22 27
27 26 28 30 30 31 31 33 34 34 36 36 35 33 30 26 28 29 31 30 34 36 40 39 38 39 39 40 40 42 44 42 44 45 44 41 41 24 18 24 23 19 20
25 25 27 29 30 30 32 33 34 34 35 35 33 33 31 28 28 30 29 32 32 36 39 40 39 39 39 42 43 45 45 43 41 45 43 44 42 28 18 24 27 26 23
22 22 24 26 27 29 31 33 34 33 34 34 32 31 33 31 31 30 27 32 31 36 39 40 40 40 40 41 41 43 44 47 42 47 47 51 38 35 27 30 32 33 32
19 21 22 24 25 27 29 32 33 33 34 35 33 30 34 36 35 34 24 28 30 34 37 39 40 41 42 43 43 44 46 45 44 48 52 49 43 37 32 31 34 34 33
18 19 19 20 22 24 27 29 32 32 33 33 34 31 32 37 40 29 25 26 29 33 36 39 44 45 46 47 45 45 45 44 44 46 50 51 48 43 38 36 37 37 36
15 16 17 17 19 21 24 27 30 29 32 33 35 33 32 34 39 35 26 27 31 35 38 40 43 46 47 48 48 47 46 43 46 50 52 53 52 50 46 45 45 44 42
12 14 16 16 17 19 22 25 28 28 30 31 34 35 32 32 33 36 29 29 33 36 41 45 47 49 49 49 49 50 49 46 46 50 54 54 53 54 53 52 54 52 51
11 15 14 15 17 17 20 22 24 28 30 30 31 32 31 27 26 28 29 31 34 41 46 49 49 50 50 51 53 54 53 51 50 52 54 52 53 53 54 55 53 55 56
12 15 12 12 14 16 19 20 24 28 26 27 29 31 31 31 28 26 28 30 32 37 43 46 46 49 50 52 53 54 54 51 48 50 51 51 52 52 54 57 56 58 59
6 13 13 9 12 15 21 20 23 25 26 26 28 28 30 33 33 30 31 30 34 37 39 42 44 47 49 51 53 54 52 52 51 48 49 49 49 53 57 57 54 52 53
1 6 13 14 17 20 22 18 23 23 25 25 26 27 28 31 34 33 35 35 36 40 42 45 49 52 55 55 56 55 54 52 49 47 46 42 44 48 50 49 47 45 42
5 2 7 13 18 22 23 24 29 23 25 28 25 27 31 34 33 37 39 41 42 43 46 49 52 57 57 56 57 60 62 59 59 58 62 64 54 52 55 58 56 58 55
8 5 3 10 18 23 23 28 33 31 26 29 29 30 33 38 40 42 44 45 47 49 51 55 56 59 62 64 66 69 71 69 64 64 67 69 67 67 69 70 72 70 67
10 9 7 11 14 22 27 27 27 32 29 27 29 30 33 35 41 43 45 50 52 55 53 54 58 62 66 68 72 74 73 70 71 73 76 76 79 81 83 80 76 69 74
18 14 12 11 12 18 23 24 24 26 28 28 31 33 36 38 40 40 46 52 54 52 55 59 64 67 71 73 75 74 75 77 75 78 79 72 68 70 74 77 76 74 73
18 19 23 15 10 13 16 18 20 22 25 27 30 34 39 39 41 42 47 51 54 56 59 62 66 70 73 74 75 76 74 74 75 71 67 70 70 70 71 74 76 75 73
19 24 24 14 5 10 16 18 21 23 26 28 31 35 38 40 43 45 48 53 56 57 62 64 67 70 71 75 74 73 77 71 68 67 68 73 71 74 75 77 77 78 81
14 13 12 3 5 10 14 17 21 24 27 30 32 35 38 41 44 46 50 55 57 59 64 66 68 70 69 76 74 77 70 63 69 69 74 73 72 75 78 76 78 82 88
7 4 2 6 7 10 12 15 18 21 25 29 31 34 38 41 46 49 52 56 59 61 64 65 66 70 72 78 72 81 65 65 61 81 76 76 79 80 80 84 89 89 88
5 8 5 4 8 11 15 17 20 22 25 27 30 35 39 43 47 51 54 57 59 60 63 66 69 69 65 76 76 74 75 72 69 90 74 80 76 85 85 88 90 87 92
5 9 6 7 11 14 18 21 23 25 25 27 30 34 40 45 49 52 55 57 59 61 63 64 68 70 73 73 77 70 79 83 104 68 92 75 98 81 92 90 90 95 89
4 7 7 8 12 15 17 20 21 20 22 26 28 33 39 46 50 53 54 56 59 61 64 65 67 69 73 78 77 70 70 79 97 104 77 98 81 96 94 95 97 90 100
6 8 8 10 11 15 17 19 20 22 25 28 31 34 39 45 50 52 55 58 62 63 64 67 70 72 73 74 77 81 82 82 82 93 116 99 95 92 93 92 92 102 95
6 8 7 9 11 14 15 18 19 22 26 30 34 37 39 43 50 54 58 61 63 64 66 67 70 73 75 76 78 80 83 90 95 96 109 113 113 104 95 95 97 94 94
Wind_Direction
32 51 52 48 51 54 55 54 45 36 27 19 16 14 20 13 2 355 350 345 339 338 334 325 330 339 344 346 349 348 349 338 337 339 341 351 14 36 52 52 25 16 53
55 59 58 57 59 60 62 57 50 42 35 28 29 25 15 3 354 349 348 343 343 343 334 327 323 329 330 334 334 340 340 340 339 340 340 350 11 23 31 35 55 55 36
54 58 58 62 63 61 56 54 49 42 37 34 35 38 23 360 348 348 347 352 343 339 339 340 335 328 329 328 332 331 327 336 338 337 333 329 329 6 28 17 23 31 38
54 62 62 66 63 59 62 56 50 51 44 42 35 32 32 13 348 338 351 343 349 346 344 343 341 338 333 328 326 325 326 335 340 331 328 325 328 352 8 358 357 355 0
49 65 59 60 58 60 62 54 54 51 44 42 35 24 20 16 342 336 351 346 353 350 349 347 344 343 342 340 336 330 327 327 333 324 319 315 332 335 345 341 339 335 333
51 65 66 58 52 55 55 51 52 52 47 35 34 26 7 0 353 336 355 352 358 355 352 348 344 341 339 337 335 333 329 328 330 321 312 315 323 330 332 332 331 330 326
45 62 45 47 46 52 51 53 48 46 45 40 30 21 10 351 343 8 10 3 359 355 353 346 339 335 332 330 332 331 332 334 334 328 318 314 317 323 327 326 324 322 321
52 39 21 36 33 43 47 52 45 48 46 38 30 20 8 356 345 353 5 2 356 350 347 344 342 337 332 329 328 330 331 335 332 327 324 321 320 320 321 321 320 319 317
29 13 14 3 8 26 34 33 34 40 45 46 36 27 21 9 1 356 8 359 353 348 341 338 335 333 334 334 332 330 332 333 334 330 325 324 322 319 318 317 315 315 314
6 337 5 355 351 10 13 26 32 27 33 43 44 42 44 50 44 28 16 7 354 342 336 332 333 333 334 333 330 328 328 329 329 329 328 327 324 323 320 318 317 316 314
347 317 345 2 350 2 3 14 14 11 32 40 38 41 50 51 52 48 34 25 12 0 349 343 341 339 336 334 333 331 330 331 331 330 329 328 326 325 321 319 318 315 314
358 318 311 342 344 357 344 4 9 9 22 29 37 39 38 28 26 32 22 19 12 5 0 355 350 345 340 337 334 334 334 333 331 330 330 328 326 324 321 319 318 318 317
343 329 304 312 316 328 338 359 3 8 12 15 19 19 25 23 15 14 8 7 4 357 354 351 345 342 338 337 334 334 333 333 334 333 332 330 327 325 323 322 321 318 315
275 275 308 311 310 315 325 332 339 359 359 360 10 10 4 2 6 1 359 354 352 353 350 348 344 339 338 339 338 334 332 333 333 330 327 324 326 325 323 320 319 318 316
279 262 292 313 308 312 319 321 326 338 353 352 2 1 358 354 352 353 351 352 351 348 346 343 342 339 335 333 331 329 326 327 329 329 326 324 324 322 320 318 314 313 314
283 273 279 304 310 312 314 323 329 339 347 1 3 4 2 357 348 349 351 346 348 348 350 348 344 337 332 330 326 326 326 328 327 323 322 321 317 314 311 312 314 314 311
296 290 288 298 312 319 317 325 333 343 354 1 1 5 6 358 352 356 352 350 351 354 351 345 338 336 332 330 326 326 325 323 324 323 322 326 328 327 324 321 322 319 317
298 296 297 297 313 332 340 344 352 354 357 3 6 8 4 3 3 358 354 352 351 351 347 343 340 335 333 332 330 328 328 327 326 329 332 331 331 332 330 328 325 325 325
295 291 287 299 327 350 351 357 6 12 13 14 14 9 7 7 5 2 357 353 351 351 347 343 340 338 336 333 333 333 329 332 334 336 334 332 331 331 330 328 327 326 324
310 304 292 305 38 14 15 21 22 25 24 21 17 15 15 11 7 3 358 355 354 351 345 342 339 338 338 334 333 331 335 338 338 337 335 334 333 332 330 330 329 326 322
340 42 67 93 65 42 33 33 28 22 24 24 19 18 16 10 5 2 359 356 353 350 347 345 343 340 338 338 337 333 339 339 340 335 333 334 332 331 331 329 326 325 323
54 81 83 64 59 50 47 40 41 43 34 32 22 14 11 8 5 2 360 357 354 352 348 346 344 343 345 343 340 338 332 335 334 331 335 332 332 330 329 327 326 325 324
73 86 78 69 68 57 59 59 54 51 37 29 19 13 9 6 4 2 0 359 356 353 348 347 346 345 341 342 343 342 333 328 325 332 328 332 326 329 327 327 326 324 324
95 80 71 67 68 66 67 69 64 48 37 21 15 12 8 5 3 2 1 359 356 353 349 348 346 345 343 339 340 342 337 332 327 323 329 326 329 326 326 325 325 325 323
110 89 75 65 57 66 68 63 51 36 24 17 12 8 7 5 4 3 359 356 353 352 350 347 345 344 343 340 337 334 332 331 330 324 320 324 325 326 326 326 326 324 324
130 95 71 60 44 55 58 50 39 26 17 11 5 3 2 2 1 359 357 355 353 351 348 346 345 342 340 338 336 334 331 329 327 324 320 320 320 323 326 326 325 325 325